sat.trackr.live / text

‹ back to catalog

STARLINK-1502

NORAD 45764 · 2020-038AL

PAYLOAD ACTIVE UNKNOWN

§ Identity

Operator
Country
US
Launch date
2020-06-13
Launch site
AFETR
Launch vehicle
Mass (kg)
RCS (m²)

Purposes: comms

External: N2YO · Heavens-Above · Gunter

§ Orbital elements

Epoch: 2026-09-19T19:30:25.303104Z

Period
91.35 min
Inclination
53.0395°
Eccentricity
0.0002951
Mean motion
15.76410978 rev/d
Perigee alt
338.6 km
Apogee alt
342.6 km
Semi-major
6,718.8 km
B*
4.2957e-4
RAAN
336.7599°
Arg perigee
344.1750°
Mean anomaly
15.9176°
Rev number
34,698

§ Raw data

STARLINK-15021 45764U 20038AL  26262.81279286  .00069259  00000+0  42957-3 0  99902 45764  53.0395 336.7599 0002951 344.1750  15.9176 15.76410978346983

JSON: /api/v1/satellites/45764 · /tle

For live sub-satellite position, see the globe view (requires WebGL).

§ Visibility from observer

Set your observer location to see the next 7 days of passes ≥ 10°. The values pass through the URL so the page stays shareable.

No JS? Fill the form by hand. The geolocation button needs JavaScript.